www.pogodaiklimat.ru

Погода и климат >> Архив погоды >> Россия >> Белгородская область >> Богородицкое


АРХИВ ПОГОДЫ в Богородицком

Время (UTC), дата Ветер
(напр.,м/с)
 
Видим.   Явления Облачность Т
(С)
Тd
(С)
f
(%)
Тe
(С)
Тes
(С)
Комфортность P
(гПа)
Po
(гПа)
Тmin
(С)
Tmax
(С)
R
(мм)
R24
(мм)
S
(см)
06 16.08 Ю 2 20 км 9/0 2000 м
[Ac trans]
+23.5 +15.6 61 +27 +30 душно 1006.6 981.0 +18.9
09 16.08 В 2 20 км 6/0
[Ci fib]
+28.4 +13.2 39 +30 +42 жарко 1005.5 980.3
12 16.08 ЮВ 2 20 км 3/0
[Ci fib]
+29.9 +12.9 35 +31 +40 жарко 1005.0 979.9
15 16.08 ЮВ 2 20 км 10/3 1000 м
[Cu hum Ci fib]
+29.4 +14.2 39 +31 +32 жарко 1004.4 979.3
18 16.08 Ю 1 10 км 10/0 2000 м
[Ac trans Ci fib]
+23.1 +15.2 61 +27 +27 душно 1005.9 980.2 +30.4
21 16.08 штиль 0 10 км 10/0
[Ac trans Ci fib]
+18.3 +15.1 82 +19 +19 1006.7 980.6
00 17.08 штиль 0 10 км 9/0
[Ac trans]
+17.5 +15.3 87 +17 +17 1006.6 980.4
03 17.08 штиль 0 10 км 10/4 600 м
[Cb calv Ac und]
+17.7 +15.9 89 +18 +18 1006.5 980.4 +17.1
06 17.08 В 1 10 км в посл. час ливневой дождь {гроза} 10/6 600 м
[Cb calv Ac und]
+18.8 +18.0 95 +21 +22 комфорт 1006.9 980.9 +17.1 1
09 17.08 СВ 1 4000 м ливневой дождь 10/8 600 м
[Cb calv Ac und]
+18.5 +18.2 98 +20 +21 1008.2 982.1
12 17.08 Ю 1 20 км в посл. час ливневой дождь 9/6 600 м
[Cb calv Ac trans]
+19.4 +18.6 95 +23 +25 комфорт 1007.6 981.6
15 17.08 штиль 0 4000 м ливневой дождь 10/8 600 м
[Cb calv Ac und]
+20.6 +18.9 90 +24 +24 комфорт 1007.4 981.5 23
18 17.08 ЮЗ 2 10 км {ливн. осадки} 9/6 600 м
[Cb calv Ac trans]
+17.6 +16.9 96 +18 +18 1008.4 982.2 +21.3 35
21 17.08 З 2 10 км 3/0
[Ci fib]
+15.7 +15.1 96 +16 +16 1008.9 982.5
00 18.08 Ю 1 10 км 3/0
[Ci fib]
+15.1 +4.6 49 +16 +16 1009.7 983.2
03 18.08 З 1 4000 м дымка 10/0 2000 м
[Ac und]
+15.7 +15.1 96 +16 +16 1009.7 983.2 +13.9 13
06 18.08 ЮЗ 2 20 км 10/6 600 м
[Cb calv Ac und]
+16.2 +15.5 96 +16 +17 1010.5 984.1 +13.9
09 18.08 ЮЗ 1 20 км 9/9 600 м
[Cb calv]
+19.5 +16.2 81 +23 +24 комфорт 1010.8 984.7
12 18.08 ЮЗ 3 20 км 10/8 1000 м
[Cu hum Ci fib]
+21.6 +15.2 67 +25 +26 комфорт 1011.3 985.4
15 18.08 З 3 20 км 8/4 1000 м
[Cu hum Ac trans Ci fib]
+19.7 +14.8 73 +22 +22 комфорт 1012.6 986.5
18 18.08 З 1 10 км 10/0
[Ci fib]
+15.6 +14.0 90 +16 +16 1014.9 988.3 +22.8
21 18.08 СЗ 1 10 км 10/0
[Ci fib]
+13.6 +13.0 96 +14 +14 1015.9 989.1
00 19.08 СЗ 1 10 км 1/0
[Ac trans]
+13.4 +12.5 94 +13 +13 1016.6 989.8
03 19.08 штиль 0 10 км 3/0 2000 м
[Ac trans]
+11.5 +11.1 97 +11 +11 1018.5 991.4 +10.5
06 19.08 СЗ 2 10 км 9/8 600 м
[Cu hum Ci fib]
+17.1 +15.2 89 +17 +18 1018.7 992.2 +10.5
09 19.08 СВ 2 20 км 8/8 600 м
[Cb calv]
+20.7 +15.3 71 +24 +27 комфорт 1019.0 992.8
12 19.08 С 2 20 км 8/6 600 м
[Cb calv Ci fib]
+24.4 +15.5 58 +27 +31 жарко 1018.6 992.7
15 19.08 С 1 20 км 3/3 1000 м
[Cu hum]
+24.3 +14.8 55 +27 +28 жарко 1018.9 993.0
18 19.08 СЗ 1 10 км ясно +18.0 +15.8 87 +19 +19 1020.2 993.7 +25.1
21 19.08 СЗ 2 10 км ясно +15.9 +14.1 89 +16 +16 1021.0 994.3
00 20.08 СЗ 1 10 км ясно +14.4 +13.5 94 +15 +15 1021.2 994.3
03 20.08 штиль 0 20 км ясно +13.5 +12.7 95 +13 +13 1022.1 995.1 +12.8
06 20.08 В 1 20 км ясно +21.6 +15.9 70 +25 +32 комфорт 1022.6 996.4 +12.8
09 20.08 СВ 2 20 км 3/3 1000 м
[Cu hum]
+25.5 +14.0 49 +28 +37 жарко 1022.4 996.4
12 20.08 С 2 20 км 3/3 1000 м
[Cu hum]
+27.1 +13.6 43 +29 +35 жарко 1021.6 995.9
15 20.08 С 1 20 км 1/0
[Ci fib]
+27.1 +13.2 42 +29 +30 жарко 1021.4 995.7
18 20.08 С 1 10 км 3/0
[Ci fib]
+19.8 +13.9 69 +23 +23 комфорт 1023.1 996.7 +27.7
21 20.08 С 1 10 км ясно +15.9 +13.0 83 +17 +17 1023.8 997.0
00 21.08 штиль 0 10 км ясно +14.4 +12.7 90 +14 +14 1024.3 997.3
03 21.08 штиль 0 20 км ясно +13.4 +12.1 92 +13 +13 1024.4 997.4 +12.9
06 21.08 В 2 20 км ясно +22.9 +15.2 62 +27 +33 душно 1024.1 998.0 +12.9
09 21.08 В 4 20 км ясно +25.6 +14.2 49 +28 +37 жарко 1023.2 997.2
12 21.08 СВ 4 20 км ясно +27.9 +13.8 42 +30 +36 жарко 1021.6 996.0
15 21.08 СВ 4 20 км ясно +27.3 +13.0 41 +29 +30 жарко 1020.6 994.9
18 21.08 СВ 1 10 км ясно +20.3 +15.2 73 +24 +24 комфорт 1021.2 994.9 +28.3
21 21.08 штиль 0 10 км ясно +16.5 +15.0 91 +16 +16 1021.5 994.8
00 22.08 штиль 0 10 км ясно +15.1 +14.2 94 +15 +15 1021.6 994.8
03 22.08 штиль 0 20 км ясно +14.2 +13.4 95 +14 +14 1021.5 994.6 +14.1
06 22.08 СВ 2 20 км 3/0 2000 м
[Ac trans]
+23.0 +16.1 65 +27 +32 душно 1020.7 994.6 +13.7
09 22.08 СВ 2 20 км 6/0
[Ci fib]
+27.3 +16.4 51 +31 +42 душно 1019.9 994.2
12 22.08 С 2 20 км 8/3 1000 м
[Cu hum Ci fib]
+28.9 +15.6 44 +32 +37 душно 1019.3 993.8
15 22.08 С 2 20 км 10/3 1000 м
[Cu hum Ci fib]
+28.0 +15.9 48 +31 +32 душно 1019.3 993.7
18 22.08 СЗ 1 10 км 6/0
[Ci fib]
+21.0 +16.4 75 +26 +26 душно 1020.6 994.4 +29.7
21 22.08 СЗ 3 10 км ясно +20.8 +15.2 70 +24 +24 комфорт 1021.4 995.2
00 23.08 С 1 10 км ясно +20.0 +16.2 79 +24 +24 комфорт 1022.5 996.1
03 23.08 С 3 10 км 10/0
[Ci fib]
+16.5 +14.8 90 +16 +16 1023.6 996.8 +16.5

 

Местоположение метеостанции Богородицкое (Белгородская область, Россия): широта 51.17 долгота 37.35 высота над уровнем моря 226 м.

В архиве по умолчанию представлена погода в Богородицком за последнюю неделю. Архивные данные за месяц целиком и за предыдущие месяцы, начиная с января 2011 года, Вы можете получить, выбрав интересующий диапазон дат из раскрывающегося списка и нажав кнопку "Ввод!".


*Определитесь, кто Вы:
робот инопланетянин человек

Внимание! Время в таблицах - всемирное. Для получения местного времени необходимо прибавить поправку, которая равна 3 ч.

Смотрите также архив погоды в соседних городах и на ближайших метеорологических станциях:

Погода в Старом Осколе (Белгородская область, Россия) (40 км)
Погода в Тиме (Курская область, Россия) (52 км)
Погода в Новом Осколе (Белгородская область, Россия) (59 км)
Погода в Обояни (Курская область, Россия) (72 км)
Погода в Белгороде (Белгородская область, Россия) (81 км)
Погода в Нижнедевицке (Воронежская область, Россия) (83 км)
Погода в Курске (Курская область, Россия) (106 км)
Погода в Готне (Белгородская область, Россия) (118 км)
Погода в Валуйках (Белгородская область, Россия) (118 км)
Погода в Великом Бурлуке (Харьковская область, Украина) (122 км)

Пояснения к столбцам:

Ветер - указаны скорость ветра в м/с - средняя за 10 мин, порывы в срок и между сроками (в фигурных скобках) и направление, откуда дует ветер: С - северный, СВ - северо-восточный, В - восточный, ЮВ - юго-восточный, Ю - южный, ЮЗ - юго-западный, З - западный, СЗ - северо-западный.
Видимость - горизонтальная дальность видимости в метрах или километрах. При видимости от 1 до 10 км при отсутствии осадков обычно наблюдается дымка, при ухудшении видимости до 1 км и менее - туман. В сухую погоду видимость может ухудшаться дымом, пылью или мглою.
Явления - указаны атмосферные явления, наблюдавшиеся в срок или в последний час перед сроком; фигурными скобками обозначены явления, наблюдавшиеся между сроками (за 1-3 часа до срока); квадратными скобками обозначены град или гололедные отложения с указанием их диаметра в мм.
Облачность - указаны через наклонную черту общая и нижняя облачность в баллах и высота нижней границы облаков в метрах; квадратными скобками обозначены формы облаков: Ci - перистые, Cs - перисто-слоистые, Cc - перисто-кучевые, Ac - высококучевые, As - высокослоистые, Sc - слоисто-кучевые, Ns - слоисто-дождевые, Cu - кучевые, Cb - кучево-дождевые. Подробнее классификацию облаков см. в Атласе облаков (PDF).
T - Температура воздуха - температура, измеренная на высоте 2 м над землей.
Td - Температура точки росы - температура, при понижении до которой содержащийся в воздухе водяной пар достигнет насыщения.
f - Относительная влажность воздуха - влажноcть воздуха, измеренная на высоте 2 м над землей.
Te - Эффективная температура - температура, которую ощущает одетый по сезону человек в тени. Характеристика душности погоды. При расчете учитывается влияние влажности воздуха и скорости ветра на теплоощущения человека.
Tes - Эффективная температура на солнце - температура, которую ощущает человек, с поправкой на солнечный нагрев. Характеристика знойности погоды. Зависит от высоты солнца над горизонтом, облачности и скорости ветра. Ночью, в пасмурную погоду, а также при ветре 12 м/с и более поправка равна нулю.
P - Атмосферное давление - приведенное к уровню моря атмосферное давление.
Po - Атмосферное давление - измеренное на уровне метеостанции атмосферное давление.
Tmin - Минимальная температура - минимум температуры воздуха на высоте 2 м над землей.
Tmax - Максимальная температура - максимум температуры воздуха на высоте 2 м над землей.
R - Количество осадков - Количество выпавших осадков за период времени, мм. При наведении курсора мыши на число - период времени, за который выпало указанное количество осадков.
R24 - Количество осадков - Количество выпавших осадков за 24 часа, мм.
S - Снежный покров - Высота снежного покрова, см. При наведении курсора мыши на число - состояние снежного покрова и степень покрытия местности в баллах.